Showing default

ITAMSAT, 22826

Orbit data source: Space-Track

ITAMSAT, 22826 is a payload satellite owned by Satellife (IT) in SSO that was launched on Sun, 26 Sep 1993 UTC via an ARIANE 40 launch vehicle from the French Guiana (FRGUI). Payload-class satellites include a variety of spacecraft equipped with specific instruments for various scientific and technological missions. These include communications satellites like Starlink; space stations such as the ISS; scientific satellites like the Hubble; Earth observation satellites from companies like Planet Labs, Umbra, and HawkEye 360; GPS; miniature CubeSats for education and research; and military/defense satellites.

Loading next visibility...
Identifier
22826, 1993-061D
Orbit
SSO
Country
Flag of ITIT
Related business
Manufacturer
SSTL
Mission
Partially operational Commercial Communications
Bus & Motor
UOSAT, Unknown motor
Mass
50 kg wet, 50 kg dry
Launch date (UTC)
1993-09-26 (33 years ago)
Launch vehicle
ARIANE 40
Launch site
French Guiana (FRGUI)
Object type
Payload
Rocket body
Debris
Shape & HBR
Box + 1 Ant, 3.3 m
Radar Cross Section
0.597 m², Medium (>0.1 m² and < 1m²)

Expand to show TLE details & history
Last TLE update: 12 hours ago

TLE from 12 hours ago
0 ITAMSAT
1 22826U 93061D   26095.13979767  .00000172  00000-0  81941-4 0  9997
2 22826  98.6878 162.4731 0007840 302.0253  58.0167 14.31347348696866
Epoch: 2026-04-05T03:21Z
TLE epoch observation values (Epoch: 2026-04-05T03:21:18.518Z)
Latitude
-0.0001°
Longitude
-81.30355°
Altitude
787.188 km
Speed
7.462 km/s
True Right ascension
10h 49m 53s
True Declination
0° 00' 00"
Sunlit
Object was in full shadow at epoch
Visualization orbit readout
Latitude
Unknown
Longitude
Unknown
Altitude
Unknown
Speed
Unknown
Apparent Right ascension
Unknown
Apparent Declination
Unknown
Sunlit
N/A
Visualization observer readout
Local Sidereal Time
21:11:50
Azimuth
Unknown
Elevation
Unknown
Doppler factor
Unknown
Orbital elements
Apogee altitude
789.989 km
Perigee altitude
778.758 km
Semi-major axis
7,162.51 km
Eccentricity
0.00078
Inclination
98.6878°
RAAN
162.4731°
Arg. of periapsis
302.0253°
True anomaly
58.09294°
Mean anomaly
58.0167°
Eccentric anomaly
58.05482°
Mean motion
3.58051 °/min
Orbital period
100.54 mins
BSTAR
0.000081941
Loading maneuver chart data...
Computing Atmospheric mass density...
Loading historical data...
Loading historical data...
Loading historical data...
Loading historical data...
Loading historical data...
Loading historical data...
Loading historical data...

Documentation

Showing up to 5 results
|